| time (UTC) | temp F | wind direction | speed MPH | gust MPH | rain 1hr in | rain 24hr in | rain mn in | humidity % | barometer mb |
| 20260503024533 | 56 | 110 | 5.0 | 9.0 | 0.00 | 0.00 | 0.00 | 91 | 1017.0 |
| 20260503023527 | 56 | 118 | 5.0 | 9.0 | 0.00 | 0.00 | 0.00 | 91 | 1016.7 |
| 20260503022541 | 56 | 102 | 5.0 | 11.0 | 0.00 | 0.00 | 0.00 | 90 | 1016.7 |
| 20260503021517 | 56 | 120 | 5.0 | 10.0 | 0.00 | 0.00 | 0.00 | 90 | 1016.7 |
| 20260503020530 | 56 | 102 | 6.0 | 10.0 | 0.00 | 0.00 | 0.00 | 91 | 1016.7 |
| 20260503015526 | 56 | 107 | 6.0 | 13.0 | 0.00 | 0.00 | 0.00 | 91 | 1016.8 |
| 20260503014520 | 56 | 110 | 5.0 | 9.0 | 0.00 | 0.00 | 0.00 | 91 | 1016.9 |
| 20260503013533 | 56 | 100 | 7.0 | 10.0 | 0.00 | 0.00 | 0.00 | 91 | 1016.9 |
| 20260503012529 | 56 | 101 | 7.0 | 11.0 | 0.00 | 0.00 | 0.00 | 91 | 1016.9 |
| 20260503011522 | 56 | 102 | 7.0 | 14.0 | 0.00 | 0.00 | 0.00 | 91 | 1016.8 |
| 20260503010517 | 56 | 113 | 6.0 | 11.0 | 0.00 | 0.00 | 0.00 | 91 | 1017.3 |
| 20260503005530 | 56 | 100 | 5.0 | 13.0 | 0.00 | 0.00 | 0.00 | 91 | 1017.4 |
| 20260503004545 | 56 | 101 | 6.0 | 13.0 | 0.00 | 0.00 | 0.00 | 91 | 1017.4 |
| 20260503003519 | 56 | 108 | 6.0 | 13.0 | 0.00 | 0.00 | 0.00 | 91 | 1017.5 |
| 20260503002533 | 56 | 110 | 5.0 | 9.0 | 0.00 | 0.00 | 0.00 | 91 | 1017.6 |
| 20260503001527 | 56 | 106 | 6.0 | 10.0 | 0.00 | 0.00 | 0.00 | 91 | 1017.7 |
| 20260503000520 | 56 | 117 | 6.0 | 14.0 | 0.00 | 0.00 | 0.00 | 91 | 1017.7 |
| 20260502235535 | 56 | 116 | 8.0 | 15.0 | 0.00 | 0.00 | 0.00 | 92 | 1018.1 |
| 20260502234530 | 56 | 112 | 7.0 | 14.0 | 0.00 | 0.00 | 0.00 | 92 | 1018.1 |
| 20260502233523 | 56 | 121 | 5.0 | 10.0 | 0.00 | 0.00 | 0.00 | 92 | 1018.1 |
| 20260502232516 | 56 | 106 | 6.0 | 10.0 | 0.00 | 0.00 | 0.00 | 92 | 1018.0 |
| 20260502231530 | 56 | 113 | 5.0 | 9.0 | 0.00 | 0.00 | 0.00 | 92 | 1018.3 |
| 20260502230547 | 56 | 112 | 3.0 | 7.0 | 0.00 | 0.00 | 0.00 | 92 | 1018.5 |
| 20260502225520 | 56 | 113 | 3.0 | 7.0 | 0.00 | 0.00 | 0.00 | 92 | 1018.4 |
| 20260502224533 | 56 | 103 | 4.0 | 8.0 | 0.00 | 0.00 | 0.00 | 91 | 1018.4 |
| 20260502223528 | 56 | 106 | 5.0 | 8.0 | 0.00 | 0.00 | 0.00 | 91 | 1018.3 |
| 20260502222523 | 57 | 103 | 4.0 | 8.0 | 0.00 | 0.00 | 0.00 | 91 | 1018.5 |
| 20260502221556 | 57 | 101 | 4.0 | 8.0 | 0.00 | 0.00 | 0.00 | 90 | 1018.3 |
| 20260502220551 | 57 | 102 | 7.0 | 11.0 | 0.00 | 0.00 | 0.00 | 90 | 1018.4 |
| 20260502215525 | 57 | 97 | 5.0 | 9.0 | 0.00 | 0.00 | 0.00 | 90 | 1018.6 |
| 20260502214519 | 58 | 85 | 4.0 | 10.0 | 0.00 | 0.00 | 0.00 | 89 | 1018.7 |
| 20260502213534 | 58 | 82 | 4.0 | 6.0 | 0.00 | 0.00 | 0.00 | 89 | 1018.5 |
| 20260502212528 | 58 | 93 | 6.0 | 9.0 | 0.00 | 0.00 | 0.00 | 89 | 1018.4 |
| 20260502211522 | 58 | 98 | 4.0 | 9.0 | 0.00 | 0.00 | 0.00 | 89 | 1018.5 |
| 20260502210518 | 58 | 107 | 6.0 | 10.0 | 0.00 | 0.00 | 0.00 | 90 | 1018.3 |
| 20260502205531 | 58 | 97 | 6.0 | 10.0 | 0.00 | 0.00 | 0.00 | 89 | 1018.2 |
| 20260502204549 | 58 | 104 | 6.0 | 11.0 | 0.00 | 0.00 | 0.00 | 89 | 1018.2 |
| 20260502203520 | 58 | 108 | 7.0 | 11.0 | 0.00 | 0.00 | 0.00 | 88 | 1018.0 |
| 20260502202535 | 59 | 111 | 8.0 | 15.0 | 0.00 | 0.00 | 0.00 | 87 | 1018.0 |
| 20260502201529 | 59 | 115 | 5.0 | 9.0 | 0.00 | 0.00 | 0.00 | 87 | 1018.0 |
| 20260502200524 | 59 | 119 | 6.0 | 8.0 | 0.00 | 0.00 | 0.00 | 87 | 1017.9 |
| 20260502195520 | 59 | 130 | 7.0 | 13.0 | 0.00 | 0.00 | 0.00 | 86 | 1017.9 |
| 20260502194532 | 59 | 121 | 7.0 | 11.0 | 0.00 | 0.00 | 0.00 | 86 | 1017.9 |
| 20260502193526 | 60 | 127 | 9.0 | 15.0 | 0.00 | 0.00 | 0.00 | 85 | 1017.8 |
| 20260502192520 | 60 | 136 | 4.0 | 9.0 | 0.00 | 0.00 | 0.00 | 84 | 1017.6 |
| 20260502191535 | 60 | 149 | 2.0 | 6.0 | 0.00 | 0.00 | 0.00 | 80 | 1017.4 |
| 20260502190530 | 61 | 153 | 4.0 | 9.0 | 0.00 | 0.00 | 0.00 | 79 | 1017.2 |
| 20260502185522 | 62 | 162 | 4.0 | 9.0 | 0.00 | 0.00 | 0.00 | 78 | 1017.4 |
| 20260502184516 | 62 | 147 | 5.0 | 9.0 | 0.00 | 0.00 | 0.00 | 76 | 1017.2 |
| 20260502183531 | 63 | 153 | 5.0 | 9.0 | 0.00 | 0.00 | 0.00 | 74 | 1017.2 |
| 20260502182526 | 64 | 149 | 5.0 | 11.0 | 0.00 | 0.00 | 0.00 | 74 | 1017.3 |
| 20260502181520 | 64 | 171 | 6.0 | 13.0 | 0.00 | 0.00 | 0.00 | 73 | 1017.4 |
| 20260502180534 | 64 | 158 | 6.0 | 15.0 | 0.00 | 0.00 | 0.00 | 73 | 1017.4 |
| 20260502163525 | 65 | 155 | 5.0 | 13.0 | 0.00 | 0.00 | 0.00 | 69 | 1017.6 |
| 20260502162520 | 66 | 154 | 7.0 | 14.0 | 0.00 | 0.00 | 0.00 | 69 | 1017.7 |
| 20260502161532 | 66 | 173 | 8.0 | 16.0 | 0.00 | 0.00 | 0.00 | 68 | 1017.7 |
| 20260502160526 | 65 | 154 | 6.0 | 11.0 | 0.00 | 0.00 | 0.00 | 69 | 1018.0 |
| 20260502151517 | 65 | 153 | 8.0 | 16.0 | 0.00 | 0.00 | 0.00 | 70 | 1018.4 |
| 20260502150552 | 65 | 150 | 7.0 | 16.0 | 0.00 | 0.00 | 0.00 | 69 | 1018.4 |
| 20260502130527 | 64 | 128 | 8.0 | 14.0 | 0.00 | 0.14 | 0.00 | 72 | 1020.1 |
| 20260502123528 | 65 | 146 | 8.0 | 15.0 | 0.00 | 0.14 | 0.00 | 70 | 1020.3 |
| 20260502122542 | 64 | 135 | 9.0 | 15.0 | 0.00 | 0.14 | 0.00 | 69 | 1020.2 |
| 20260502121516 | 64 | 133 | 9.0 | 17.0 | 0.00 | 0.14 | 0.00 | 69 | 1020.6 |
| 20260502120532 | 65 | 136 | 7.0 | 15.0 | 0.00 | 0.14 | 0.00 | 68 | 1020.5 |
| 20260502115525 | 64 | 119 | 8.0 | 17.0 | 0.00 | 0.14 | 0.00 | 69 | 1020.5 |
| 20260502114520 | 64 | 132 | 7.0 | 14.0 | 0.00 | 0.14 | 0.00 | 71 | 1020.5 |
| 20260502113554 | 63 | 129 | 8.0 | 15.0 | 0.00 | 0.14 | 0.00 | 72 | 1020.9 |
| 20260502112529 | 62 | 142 | 7.0 | 13.0 | 0.00 | 0.14 | 0.00 | 74 | 1021.1 |
| 20260502111524 | 62 | 143 | 5.0 | 9.0 | 0.00 | 0.14 | 0.00 | 75 | 1021.1 |
| 20260502110539 | 61 | 125 | 8.0 | 15.0 | 0.00 | 0.14 | 0.00 | 76 | 1021.3 |
| 20260502105534 | 61 | 107 | 7.0 | 11.0 | 0.00 | 0.14 | 0.00 | 75 | 1021.4 |
| 20260502104527 | 62 | 142 | 7.0 | 13.0 | 0.00 | 0.14 | 0.00 | 76 | 1021.4 |
| 20260502103521 | 61 | 114 | 7.0 | 13.0 | 0.00 | 0.14 | 0.00 | 76 | 1021.3 |
| 20260502102516 | 61 | 112 | 9.0 | 15.0 | 0.00 | 0.14 | 0.00 | 76 | 1021.4 |
| 20260502101530 | 62 | 102 | 7.0 | 14.0 | 0.00 | 0.14 | 0.00 | 77 | 1021.4 |
| 20260502100524 | 61 | 108 | 9.0 | 16.0 | 0.00 | 0.14 | 0.00 | 77 | 1021.5 |
| 20260502091517 | 60 | 99 | 8.0 | 13.0 | 0.00 | 0.14 | 0.00 | 81 | 1021.4 |
| 20260502090530 | 59 | 113 | 7.0 | 14.0 | 0.00 | 0.14 | 0.00 | 82 | 1021.6 |
| 20260502071528 | 57 | 113 | 6.0 | 11.0 | 0.00 | 0.14 | 0.00 | 86 | 1022.0 |
| 20260502070522 | 57 | 119 | 6.0 | 10.0 | 0.00 | 0.14 | 0.00 | 87 | 1021.9 |
| 20260502065517 | 57 | 125 | 6.0 | 10.0 | 0.00 | 0.14 | 0.00 | 87 | 1021.9 |
| 20260502064530 | 57 | 115 | 4.0 | 9.0 | 0.00 | 0.14 | 0.00 | 87 | 1021.8 |
| 20260502063545 | 56 | 103 | 6.0 | 10.0 | 0.00 | 0.14 | 0.00 | 87 | 1021.7 |
| 20260502062522 | 56 | 107 | 4.0 | 8.0 | 0.00 | 0.14 | 0.00 | 87 | 1021.5 |
| 20260502061614 | 56 | 93 | 6.0 | 9.0 | 0.00 | 0.14 | 0.00 | 88 | 1021.6 |
| 20260502060527 | 56 | 99 | 5.0 | 9.0 | 0.00 | 0.14 | 0.00 | 88 | 1021.7 |
| 20260502055522 | 56 | 104 | 6.0 | 9.0 | 0.00 | 0.14 | 0.00 | 88 | 1021.8 |
| 20260502054537 | 56 | 99 | 4.0 | 7.0 | 0.00 | 0.14 | 0.00 | 88 | 1021.8 |
| 20260502053532 | 56 | 102 | 5.0 | 9.0 | 0.00 | 0.14 | 0.00 | 88 | 1021.7 |
| 20260502052525 | 56 | 102 | 5.0 | 9.0 | 0.00 | 0.14 | 0.00 | 89 | 1021.6 |
| 20260502051519 | 56 | 104 | 6.0 | 11.0 | 0.00 | 0.14 | 0.00 | 89 | 1021.5 |
| 20260502050534 | 56 | 95 | 5.0 | 9.0 | 0.00 | 0.14 | 0.00 | 89 | 1021.5 |
| 20260502045527 | 56 | 101 | 6.0 | 10.0 | 0.00 | 0.14 | 0.00 | 89 | 1021.6 |
| 20260502044523 | 56 | 84 | 5.0 | 13.0 | 0.00 | 0.14 | 0.00 | 89 | 1021.6 |
| 20260502043517 | 55 | 108 | 7.0 | 11.0 | 0.00 | 0.14 | 0.00 | 89 | 1021.5 |
| 20260502042532 | 56 | 108 | 6.0 | 18.0 | 0.00 | 0.14 | 0.00 | 89 | 1021.9 |
| 20260502041547 | 55 | 122 | 6.0 | 13.0 | 0.00 | 0.14 | 0.00 | 89 | 1021.7 |
| 20260502040520 | 55 | 112 | 6.0 | 9.0 | 0.00 | 0.14 | 0.00 | 90 | 1022.0 |
| 20260502035535 | 55 | 105 | 5.0 | 9.0 | 0.00 | 0.14 | 0.00 | 90 | 1022.1 |
| 20260502034528 | 55 | 116 | 6.0 | 10.0 | 0.00 | 0.14 | 0.00 | 90 | 1022.2 |
| 20260502033524 | 55 | 117 | 5.0 | 10.0 | 0.00 | 0.14 | 0.00 | 91 | 1022.3 |
| 20260502032558 | 55 | 114 | 5.0 | 10.0 | 0.00 | 0.14 | 0.00 | 91 | 1022.2 |
| 20260502031533 | 55 | 98 | 5.0 | 10.0 | 0.00 | 0.14 | 0.00 | 91 | 1022.1 |
| 20260502030527 | 55 | 115 | 5.0 | 10.0 | 0.00 | 0.14 | 0.00 | 91 | 1022.1 |
| 20260502025520 | 55 | 119 | 6.0 | 10.0 | 0.00 | 0.14 | 0.00 | 91 | 1022.1 |